Regional Weather Roundup
Issued by NWS

Home | Current Version | Previous Version | Text Only | Print | Product List | Glossary On
Versions: 1 2 3 4 5 6 7 8 9 10 11 12 13 14 15 16 17 18 19 20 21 22 23 24 25 26 27 28 29 30 31 32 33 34 35 36 37 38 39 40 41 42 43 44 45 46 47 48 49 50
000
ASUS43 KMKX 230200
RWRWI

WISCONSIN REGIONAL WEATHER ROUNDUP
NATIONAL WEATHER SERVICE MILWAUKEE/SULLIVAN WI
900 PM CDT TUE APR 22 2014

NOTE: "FAIR" INDICATES FEW OR NO CLOUDS BELOW 12,000 FEET WITH NO
SIGNIFICANT WEATHER AND/OR OBSTRUCTIONS TO VISIBILITY.

WIZ001-002-006>008-014>016-023>028-230300-
NORTHWEST WISCONSIN

CITY           SKY/WX    TMP DP  RH WIND       PRES   REMARKS
SUPERIOR ARPT  CLEAR     47  21  36 NE3       30.06R
ASHLAND        CLEAR     36  24  62 CALM      30.09R
HAYWARD        CLEAR     36  23  59 CALM      30.07R
SIREN          CLEAR     43  22  43 CALM      30.07R
RICE LAKE      CLEAR     43  27  54 NE3       30.08R
LADYSMITH      CLEAR     43  27  53 NE6       30.08R
EAU CLAIRE     NOT AVBL
MENOMONIE      CLEAR     50  23  34 CALM      30.06R
NEW RICHMOND   CLEAR     46  28  50 CALM      30.07R
OSCEOLA        PTCLDY    48  21  34 CALM      30.09R
$$

WIZ003>005-009-010-017-018-230300-
NORTH CENTRAL WISCONSIN

CITY           SKY/WX    TMP DP  RH WIND       PRES   REMARKS
WOODRUFF       CLEAR     37  22  55 CALM      30.06R
RHINELANDER    CLEAR     34  23  64 CALM      30.07R
EAGLE RIVER    CLEAR     36  23  59 CALM      30.05S
LAND O LAKES   CLEAR     33  26  76 CALM      30.06S
PHILLIPS       CLEAR     39  25  58 NE3       30.06R
TOMAHAWK       CLEAR     38  24  56 CALM      30.07R
MEDFORD        CLEAR     40  27  59 NE6       30.06R
MERRILL        CLEAR     39  25  57 N5        30.07R
$$

WIZ029-030-035-036-043>047-230300-
CENTRAL WISCONSIN

CITY           SKY/WX    TMP DP  RH WIND       PRES   REMARKS
WAUSAU         CLEAR     42  25  50 NE5       30.05R
MOSINEE        CLEAR     43  25  49 N6        30.07R
MARSHFIELD     CLEAR     44  25  47 NE6       30.06R
STEVENS POINT  CLEAR     42  24  50 N6        30.06R
WAUPACA        CLEAR     46  27  46 N6        30.06R
WAUTOMA        NOT AVBL
WISC RAPIDS    CLEAR     45  25  45 NE9       30.07R
CAMP DOUGLAS   NOT AVBL
$$

WIZ011>013-019>022-031-037>040-048>050-230300-
NORTHEAST WISCONSIN

CITY           SKY/WX    TMP DP  RH WIND       PRES   REMARKS
ANTIGO         CLEAR     37  27  67 N3        30.06R
STURGEON BAY   MOCLDY    36  27  69 N14       30.07R WCI  27
GREEN BAY      CLEAR     39  28  64 N10       30.07R WCI  32
MANITOWOC      NOT AVBL
APPLETON       PTCLDY    43  27  52 N10       30.06R
CLINTONVILLE   CLEAR     43  27  52 N5        30.06R
OSHKOSH        CLEAR     45  26  47 NE9       30.05R
$$

WIZ032>034-041-042-053>061-230300-
SOUTHWEST WISCONSIN

CITY           SKY/WX    TMP DP  RH WIND       PRES   REMARKS
LA CROSSE      CLEAR     50  27  40 N3        30.05R
SPARTA         CLEAR     47  21  35 N3        30.06R
VIROQUA        FAIR      46  25  42 N3        30.05R
BOSCOBEL       CLEAR     48  24  39 SE3       30.05R
PRAIRIE DU CHI NOT AVBL
PLATTEVILLE    FAIR      45  28  49 N6        30.04R
$$

WIZ056-057-062-063-064-067-068-230300-
SOUTH CENTRAL WISCONSIN

CITY           SKY/WX    TMP DP  RH WIND       PRES   REMARKS
BARABOO/DELLS  CLEAR     47  24  41 N6        30.04R
LONE ROCK      NOT AVBL
WATERTOWN      CLEAR     44  29  54 NE6       30.03R
MADISON        PTCLDY    46  26  45 N7        30.04R
MIDDLETON      FAIR      46  27  47 N7        30.04R
MONROE         CLEAR     47  25  41 N8        30.02R
JANESVILLE     CLEAR     52  19  28 N5        30.02R
$$

WIZ051-052-058>065-066-070>072-230300-
SOUTHEAST WISCONSIN

CITY           SKY/WX    TMP DP  RH WIND       PRES   REMARKS
MILWAUKEE      PTCLDY    40  29  64 N9        30.06R WCI  34
WAUKESHA       CLEAR     37  28  70 E3        30.05R
MILWAUKEE/TIMM NOT AVBL
RACINE         CLEAR     39  29  67 NE8       30.07R WCI  33
BURLINGTON     CLEAR     39  29  66 E8        30.05R WCI  34
KENOSHA        CLEAR     37  28  70 E3        30.06R
FOND DU LAC    CLEAR     44  30  57 N14       30.06R
SHEBOYGAN      CLEAR     42  28  57 N9        30.05R
WEST BEND      CLEAR     43  27  52 N3        30.04R
JUNEAU         CLEAR     45  25  45 N5        30.05R
$$

LSZ147-162-230300-
LAKE SUPERIOR

STATION/POSITION TIME  TEMP    WIND        PRES    WAVE
                       AIR SEA DIR/SP/G            HT/PER
                 (UTC) (F)     (DEG/KT/KT) (MB)    (FT/S)
DEVILS ISLAND    0100   38     120/  8/  9 1019.2R
PORT WING        0100   41      70/  2/  3 1018.3S
SAXON HARBOR     0140           CALM  /  2 1018.6R
$$

LMZ867-665-643>646-230300-
LAKE MICHIGAN

STATION/POSITION TIME  TEMP    WIND        PRES    WAVE
                       AIR SEA DIR/SP/G            HT/PER
                 (UTC) (F)     (DEG/KT/KT) (MB)    (FT/S)
NORTHPORT PIER   0100   34     340/ 15/ 18 1017.6R
SISTER BAY       0109   36     360/ 18/ 24   N/A
KEWAUNEE LAKESHO 0100   42     350/  6/ 11 1018.0R
SHEBOYGAN LAKESH 0100   43      10/ 14/ 15 1017.5R
PORT WASHINGTON  0100   43      20/  5/ 10 1017.3
MILWAUKEE LAKESH 0100   40      20/ 11/ 13   N/A
KENOSHA   LAKESH 0100   41      40/  7/  9   N/A
$$

TC  - TEMPERATURE IN CELSIUS
VSB - VISIBILITY IN STATUTE MILES
WCI - WIND CHILL INDEX
HX  - HEAT INDEX




USA.gov is the U.S. government's official web portal to all federal, state and local government web resources and services.